Weather History for KBDR - March, 2014

Change the Weather History Date:

Tuesday, March 11, 2014

  Actual Average Record
Temperature  
Mean Temperature 49 °F 38 °F  
Max Temperature 64 °F 46 °F 67 °F (1977)
Min Temperature 34 °F 30 °F 13 °F (1960)
Degree Days  
Heating Degree Days 16 27  
Month to date heating degree days 368 315  
Since 1 July heating degree days 4416 4202  
Cooling Degree Days 0 0  
Month to date cooling degree days 0 0  
Year to date cooling degree days 0 0  
Moisture  
Dew Point 32 °F    
Average Humidity 60    
Maximum Humidity 96    
Minimum Humidity 24    
Precipitation  
Precipitation 0.00 in 0.12 in 1.79 in (2000)
Month to date precipitation 0.01 1.37  
Year to date precipitation 6.99 7.26  
Snow  
Snow 0.00 in 0.30 in 1.50 in (2005)
Month to date snowfall 0.1 2.6  
Since 1 July snowfall 56.3 24.2  
Snow Depth 0.00 in    
Sea Level Pressure  
Sea Level Pressure 29.62 in    
Wind  
Wind Speed 7 mph (West)    
Max Wind Speed 21 mph    
Max Gust Speed 27 mph    
Visibility 9 miles    
Events      
T = Trace of Precipitation, MM = Missing Value Source: NWS Daily Summary

Daily Weather History Graph

Daily Weather History Graph

Search for Another Location

Airport or City:

Trip Planner

Search our weather history database for the weather conditions in past years. The results will help you decide how hot, cold, wet, or windy it might be!

Date:

Astronomy

Mar. 11, 2014 Rise Set
Actual Time 7:10 AM EDT 6:54 PM EDT
Civil Twilight 6:43 AM EDT 7:22 PM EDT
Nautical Twilight 6:11 AM EDT 7:54 PM EDT
Astronomical Twilight 5:39 AM EDT 8:26 PM EDT
Moon 2:26 PM EDT (3/11) 4:04 AM EDT (3/11)
Length of Visible Light 12h 38m
Length of Day
11h 43m
Waxing Gibbous, 78% of the Moon is Illuminated
Mar 11
Waxing Gibbous
Mar 16
Full
Mar 23
Last Quarter
Mar 30
New
Apr 7
First Quarter

Hourly Weather History & Observations

Time (EDT) Temp. Windchill Dew Point Humidity Pressure Visibility Wind Dir Wind Speed Gust Speed Precip Events Conditions
12:52 AM 36.0 °F - 33.1 °F 89% 29.59 in 7.0 mi Calm Calm - N/A   Overcast
1:52 AM 35.1 °F - 30.9 °F 85% 29.57 in 5.0 mi Calm Calm - N/A   Clear
2:52 AM 34.0 °F - 32.0 °F 92% 29.56 in 4.0 mi Calm Calm - N/A   Clear
3:52 AM 36.0 °F 32.1 °F 33.1 °F 89% 29.53 in 5.0 mi WSW 4.6 mph - N/A   Clear
4:52 AM 37.9 °F 32.1 °F 34.0 °F 86% 29.54 in 8.0 mi SW 8.1 mph - N/A   Clear
5:52 AM 39.9 °F 35.8 °F 33.1 °F 77% 29.56 in 10.0 mi WSW 5.8 mph - N/A   Clear
6:52 AM 39.0 °F 34.8 °F 32.0 °F 76% 29.59 in 10.0 mi WSW 5.8 mph - N/A   Clear
7:52 AM 42.1 °F 37.7 °F 33.1 °F 70% 29.61 in 10.0 mi West 6.9 mph - N/A   Clear
8:52 AM 45.0 °F 41.2 °F 34.0 °F 65% 29.62 in 10.0 mi WSW 6.9 mph - N/A   Clear
9:52 AM 50.0 °F - 37.0 °F 61% 29.62 in 10.0 mi WSW 8.1 mph - N/A   Clear
10:52 AM 54.0 °F - 36.0 °F 51% 29.61 in 10.0 mi West 10.4 mph - N/A   Clear
11:52 AM 50.0 °F - 37.0 °F 61% 29.61 in 10.0 mi West 10.4 mph 20.7 mph N/A   Clear
12:52 PM 57.9 °F - 30.9 °F 36% 29.60 in 10.0 mi WNW 16.1 mph 23.0 mph N/A   Clear
1:52 PM 60.1 °F - 28.9 °F 31% 29.60 in 10.0 mi WNW 15.0 mph 20.7 mph N/A   Clear
2:52 PM 62.1 °F - 30.0 °F 30% 29.60 in 10.0 mi WNW 12.7 mph 21.9 mph N/A   Clear
3:52 PM 64.0 °F - 26.1 °F 24% 29.60 in 10.0 mi NW 13.8 mph 23.0 mph N/A   Clear
4:52 PM 62.1 °F - 27.0 °F 26% 29.62 in 10.0 mi WNW 10.4 mph - N/A   Clear
5:52 PM 60.1 °F - 27.0 °F 28% 29.63 in 10.0 mi WNW 8.1 mph - N/A   Clear
6:52 PM 57.0 °F - 27.0 °F 32% 29.65 in 10.0 mi WNW 5.8 mph - N/A   Clear
7:52 PM 48.0 °F - 32.0 °F 54% 29.67 in 10.0 mi Calm Calm - N/A   Clear
8:52 PM 46.0 °F - 33.1 °F 61% 29.69 in 10.0 mi Calm Calm - N/A   Clear
9:52 PM 39.9 °F 37.8 °F 30.9 °F 70% 29.70 in 10.0 mi West 3.5 mph - N/A   Clear
10:52 PM 43.0 °F - 33.1 °F 68% 29.71 in 10.0 mi Calm Calm - N/A   Clear
11:52 PM 45.0 °F 43.5 °F 32.0 °F 60% 29.71 in 10.0 mi North 3.5 mph - N/A   Mostly Cloudy